Regional Weather Roundup
Issued by NWS Kansas City/Pleasant Hill, MO

Home | Current Version | Previous Version | Text Only | Print | Product List | Glossary On
Versions: 1 2 3 4 5 6 7 8 9 10 11 12 13 14 15 16 17 18 19 20 21 22 23 24 25 26 27
000
ASUS43 KEAX 222110
RWREAX

WEATHER ROUNDUP FOR EASTERN KANSAS AND NORTHWEST MISSOURI
NATIONAL WEATHER SERVICE KANSAS CITY/PLEASANT HILL MO
400 PM CDT WED MAR 22 2017

KSZ040-057-103>105-MOZ028-029-037-043-222200-
...KANSAS CITY METROPOLITAN AREA...

CITY           SKY/WX    TMP DP  RH WIND       PRES   REMARKS
K.C. INTL      CLOUDY    55  25  31 SE22G29   30.25F
K.C. DOWNTOWN  CLOUDY    56  27  32 E14       30.24F
LEES SUMMIT    CLOUDY    54  27  35 E13G22    30.25F
OLATHE - IXD   MOSUNNY   57  28  33 E16G25    30.23F
OLATHE - OJC   CLOUDY    56  28  34 E14       30.22F
LAWRENCE       SUNNY     60  25  26 E15G24    30.23F

$$

MOZ001>008-011>017-020>025-030>033-038>040-044>046-053-054-222200-
...NORTHERN AND CENTRAL MISSOURI...

CITY           SKY/WX    TMP DP  RH WIND       PRES   REMARKS
ST. JOSEPH     SUNNY     57  29  34 SE10G23   30.26F
MOSBY          PTCLDY    54  27  35 E12G17    30.28F
WARRENSBURG    CLOUDY    54  27  35 E15       30.28F
WHITEMAN AFB   PTSUNNY   55  26  33 E14G20    30.27F
CLINTON        CLOUDY    57  28  33 SE12      30.26F
SEDALIA        SUNNY     55  26  32 E14G22    30.31F
WARSAW         NOT AVBL
CHILLICOTHE      N/A     50  27  40 E10G20    30.35F
KIRKSVILLE     CLOUDY    46  22  38 SE13      30.38F

$$

MOZ041-047>049-056>058-063>065-088>090-097-222200-
...EASTERN AND SOUTHERN MISSOURI...

CITY           SKY/WX    TMP DP  RH WIND       PRES   REMARKS
ST. LOUIS INTL PTSUNNY   50  16  25 E8        30.39F
SPIRIT OF STL  PTSUNNY   52  18  26 E14       30.38F
COLUMBIA       SUNNY     54  25  32 E15       30.32F
JEFFERSON CITY SUNNY     55  25  31 E13G22    30.34F
ROLLA          SUNNY     54  26  34 NE10G21   30.32S
OSAGE BEACH    SUNNY    N/A N/A N/A NE9G18    30.30F
SPRINGFIELD    CLOUDY    58  32  37 S9        30.24S
BRANSON        CLOUDY    54  34  47 SE12      30.25F
JOPLIN         CLOUDY    56  33  42 E13       30.21F
WEST PLAINS    MOSUNNY   59  32  36 VRB6      30.28F

$$

IAZ060-094-KSZ022-034>040-054-083-096-NEZ052-066-093-222200-
...KANSAS...SOUTHEAST NEBRASKA AND IOWA...

CITY           SKY/WX    TMP DP  RH WIND       PRES   REMARKS
TOPEKA         SUNNY     58  23  26 E18       30.21F
MANHATTAN      CLOUDY    59  23  25 SE15G22   30.17F
EMPORIA        CLOUDY    56  30  37 E17       30.17F
CHANUTE        CLOUDY    58  30  34 SE14      30.19F
WICHITA        CLOUDY    57  36  45 E12G21    30.13F
OMAHA          CLOUDY    50  21  32 SE16      30.26F
LINCOLN        CLOUDY    53  20  27 E13       30.23F
FALLS CITY     SUNNY     58  22  24 E13G22    30.22F
LAMONI         CLOUDY    47  25  42 E10G18    30.33F
DES MOINES     CLOUDY    45  23  42 SE13      30.37F

$$





USA.gov is the U.S. government's official web portal to all federal, state and local government web resources and services.